TimeCST,TemperatureF,Dew PointF,Humidity,Sea Level PressureIn,VisibilityMPH,Wind Direction,Wind SpeedMPH,Gust SpeedMPH,PrecipitationIn,Events,Conditions,WindDirDegrees,DateUTC
12:53 AM,34.0,25.0,70,30.43,10.0,South,9.2,-,N/A,,Clear,190,2013-01-18 06:53:00
1:53 AM,34.0,25.0,70,30.43,10.0,SSW,11.5,-,N/A,,Clear,200,2013-01-18 07:53:00
2:53 AM,35.1,25.0,67,30.42,10.0,South,13.8,19.6,N/A,,Clear,190,2013-01-18 08:53:00
3:53 AM,34.0,25.0,70,30.40,10.0,SSW,10.4,-,N/A,,Clear,200,2013-01-18 09:53:00
4:53 AM,34.0,25.0,70,30.37,10.0,SSW,13.8,20.7,N/A,,Clear,200,2013-01-18 10:53:00
5:53 AM,34.0,25.0,70,30.36,10.0,SSW,12.7,-,N/A,,Clear,200,2013-01-18 11:53:00
6:53 AM,35.1,25.0,67,30.35,10.0,SSW,12.7,-,N/A,,Clear,200,2013-01-18 12:53:00
7:53 AM,35.1,25.0,67,30.35,10.0,SSW,13.8,20.7,N/A,,Clear,200,2013-01-18 13:53:00
8:53 AM,37.0,26.1,65,30.33,10.0,SSW,17.3,26.5,N/A,,Clear,200,2013-01-18 14:53:00
9:53 AM,42.1,28.0,58,30.31,10.0,SSW,15.0,21.9,N/A,,Clear,200,2013-01-18 15:53:00
10:53 AM,46.9,28.0,48,30.27,10.0,SSW,19.6,28.8,N/A,,Clear,210,2013-01-18 16:53:00
11:53 AM,51.1,28.9,43,30.21,10.0,SSW,18.4,38.0,N/A,,Clear,210,2013-01-18 17:53:00
12:53 PM,53.1,28.0,38,30.16,10.0,SSW,25.3,40.3,N/A,,Clear,210,2013-01-18 18:53:00
1:53 PM,55.0,28.0,35,30.13,10.0,SW,27.6,41.4,N/A,,Clear,220,2013-01-18 19:53:00
2:53 PM,55.9,28.0,34,30.10,10.0,SW,25.3,36.8,N/A,,Clear,220,2013-01-18 20:53:00
3:53 PM,55.0,28.0,35,30.08,10.0,SSW,23.0,34.5,N/A,,Clear,210,2013-01-18 21:53:00
4:53 PM,54.0,28.9,38,30.08,10.0,SSW,21.9,32.2,N/A,,Clear,210,2013-01-18 22:53:00
5:53 PM,51.1,30.0,44,30.10,10.0,SW,17.3,24.2,N/A,,Clear,220,2013-01-18 23:53:00
6:53 PM,48.0,30.0,50,30.10,10.0,SSW,13.8,20.7,N/A,,Clear,200,2013-01-19 00:53:00
7:53 PM,48.0,28.9,48,30.09,10.0,SSW,17.3,26.5,N/A,,Clear,210,2013-01-19 01:53:00
8:53 PM,46.0,28.9,51,30.10,10.0,SSW,12.7,21.9,N/A,,Clear,210,2013-01-19 02:53:00
9:53 PM,46.0,28.9,51,30.08,10.0,SSW,17.3,25.3,N/A,,Clear,210,2013-01-19 03:53:00
10:53 PM,46.9,28.9,50,30.06,10.0,SSW,19.6,29.9,N/A,,Clear,210,2013-01-19 04:53:00
11:53 PM,46.9,28.9,50,30.04,10.0,SW,16.1,26.5,N/A,,Clear,220,2013-01-19 05:53:00